Flag for Germany Weather past 2 weeks in Naumburg (Saale), Saxony-Anhalt, Germany

Now
70 °F

Overcast.


Feels Like: 70 °F
Forecast: 60 / 84 °F
Wind: 2 mph from South

Location: Gera-Leumnitz

Current Time: Aug 1, 2014 at 10:24:40 AM

Latest Report: Aug 1, 2014 at 10:00 AM


Visibility: 19 mi

Pressure: 29.94 "Hg

Humidity: 61%

Dew point: 56 °F

Location of Naumburg (Saale)Location

Historic Weather in Naumburg (Saale) — Graph

°F

Naumburg (Saale) temperature yesterday

Maximum temperature yesterday: 75 °F (at 6:00 PM)
Minimum temperature yesterday: 60 °F (at 6:00 AM)
Average temperature yesterday: 67 °F

Past Weeks' High & Low Weather Summary

 TemperatureHumidityPressure
High90 °F (Jul 20, 2:00 PM)98% (Jul 25, 5:00 AM)30.18 "Hg (Jul 25, 5:00 AM)
Low55 °F (Aug 1, 6:00 AM)25% (Jul 20, 6:00 PM)29.71 "Hg (Jul 29, 9:00 PM)
Average69 °F71%29.92 "Hg
* Reported Jul 17 9:00 AM — Aug 1 9:00 AM, Naumburg (Saale), Weather by CustomWeather, © 2014

Note: Actual official high and low records may vary slightly from our data, if they occured in-between our weather recording intervals... More about our weather records

Advertising

Naumburg (Saale) weather history for previous 24 hours

 ConditionsComfort  
Time TempWeatherWind HumidityBarometerVisibility
9:00 AM
Aug 1
66 °FPartly sunny.3 mph71%29.95 "Hg16 mi
8:00 AM61 °FScattered clouds.2 mph83%29.96 "Hg16 mi
7:00 AM57 °FScattered clouds.2 mph91%29.97 "Hg15 mi
6:00 AM55 °FPassing clouds.2 mph92%29.98 "Hg9 mi
5:00 AM56 °FClear.2 mph90%29.98 "Hg6 mi
4:00 AM57 °FClear.2 mph88%29.98 "Hg8 mi
3:00 AM57 °FClear.2 mph88%29.99 "Hg9 mi
2:00 AM58 °FClear.2 mph82%29.99 "Hg6 mi
1:00 AM61 °FClear.1 mph72%29.99 "Hg17 mi
12:00 AM62 °FClear.3 mph73%29.98 "Hg19 mi
11:00 PM
Jul 31
65 °FClear.5 mph65%29.97 "Hg22 mi
10:00 PM68 °FClear.3 mph56%29.96 "Hg22 mi
9:00 PM69 °FPassing clouds.3 mph53%29.94 "Hg31 mi
8:00 PM72 °FScattered clouds.3 mph49%29.93 "Hg34 mi
7:00 PM73 °FScattered clouds.1 mph40%29.93 "Hg34 mi
6:00 PM75 °FScattered clouds.1 mph43%29.93 "Hg31 mi
5:00 PM74 °FScattered clouds.2 mph38%29.95 "Hg28 mi
4:00 PM73 °FScattered clouds.2 mph46%29.96 "Hg28 mi
3:00 PM72 °FScattered clouds.2 mph49%29.96 "Hg28 mi
2:00 PM69 °FScattered clouds.2 mph58%29.97 "Hg28 mi
1:00 PM69 °FScattered clouds.3 mph65%29.98 "Hg28 mi
12:00 PM68 °FPartly sunny.2 mph69%29.99 "Hg22 mi
11:00 AM66 °FPartly sunny.2 mph71%29.99 "Hg25 mi
10:00 AM65 °FScattered clouds.3 mph73%29.98 "Hg25 mi
Weather by CustomWeather, © 2014

See weather overviewHow to use our weather pages